Time,TemperatureF,DewpointF,PressureIn,WindDirection,WindDirectionDegrees,WindSpeedMPH,WindSpeedGustMPH,Humidity,HourlyPrecipIn,Conditions,Clouds,dailyrainin,SoftwareType,DateUTC
2013-07-05 00:05:00,72.7,62.2,29.95,SE,135,4.0,5.0,70,0.00,,,0.00,meteohub,2013-07-05 05:05:00,
2013-07-05 00:10:00,72.5,62.6,29.95,East,90,5.0,5.0,71,0.00,,,0.00,meteohub,2013-07-05 05:10:00,
2013-07-05 00:15:00,72.1,62.2,29.95,SE,135,6.0,6.0,71,0.00,,,0.00,meteohub,2013-07-05 05:15:00,
2013-07-05 00:20:00,72.0,62.4,29.95,SE,135,4.0,6.0,72,0.00,,,0.00,meteohub,2013-07-05 05:20:00,
2013-07-05 00:25:00,72.0,62.4,29.95,SE,135,5.0,6.0,72,0.00,,,0.00,meteohub,2013-07-05 05:25:00,
2013-07-05 00:30:00,71.8,62.2,29.96,SE,135,5.0,6.0,72,0.00,,,0.00,meteohub,2013-07-05 05:30:00,
2013-07-05 00:35:00,71.6,62.1,29.96,East,90,4.0,6.0,72,0.00,,,0.00,meteohub,2013-07-05 05:35:00,
2013-07-05 00:40:00,71.4,62.8,29.96,SE,135,5.0,6.0,74,0.00,,,0.00,meteohub,2013-07-05 05:40:00,
2013-07-05 00:45:00,71.4,62.8,29.96,SE,135,6.0,7.0,74,0.00,,,0.00,meteohub,2013-07-05 05:45:00,
2013-07-05 00:50:00,71.1,62.8,29.96,SE,135,8.0,8.0,75,0.00,,,0.00,meteohub,2013-07-05 05:50:00,
2013-07-05 00:55:00,70.9,62.6,29.96,East,90,6.0,8.0,75,0.00,,,0.00,meteohub,2013-07-05 05:55:00,
2013-07-05 01:00:00,70.5,62.6,29.96,SE,135,5.0,8.0,76,0.00,,,0.00,meteohub,2013-07-05 06:00:00,
2013-07-05 01:05:00,70.3,62.8,29.96,SE,135,6.0,8.0,77,0.00,,,0.00,meteohub,2013-07-05 06:05:00,
2013-07-05 01:10:00,70.3,63.1,29.96,SE,135,6.0,7.0,78,0.00,,,0.00,meteohub,2013-07-05 06:10:00,
2013-07-05 01:15:00,70.2,63.0,29.96,SE,135,7.0,7.0,78,0.00,,,0.00,meteohub,2013-07-05 06:15:00,
2013-07-05 01:20:00,69.3,62.8,29.96,East,90,6.0,7.0,80,0.00,,,0.00,meteohub,2013-07-05 06:20:00,
2013-07-05 01:25:00,69.1,63.0,29.97,SE,135,6.0,7.0,81,0.00,,,0.00,meteohub,2013-07-05 06:25:00,
2013-07-05 01:30:00,68.9,63.1,29.96,East,90,7.0,7.0,82,0.00,,,0.00,meteohub,2013-07-05 06:30:00,
2013-07-05 01:35:00,68.7,63.3,29.97,SE,135,8.0,8.0,83,0.00,,,0.00,meteohub,2013-07-05 06:35:00,
2013-07-05 01:40:00,68.5,63.1,29.97,SE,135,7.0,8.0,83,0.00,,,0.00,meteohub,2013-07-05 06:40:00,
2013-07-05 01:45:00,68.4,63.0,29.96,East,90,5.0,8.0,83,0.00,,,0.00,meteohub,2013-07-05 06:45:00,
2013-07-05 01:51:00,68.4,63.0,29.96,SE,135,6.0,8.0,83,0.00,,,0.00,meteohub,2013-07-05 06:51:00,
2013-07-05 01:56:00,68.5,63.1,29.96,SE,135,6.0,7.0,83,0.00,,,0.00,meteohub,2013-07-05 06:56:00,
2013-07-05 02:01:00,68.5,63.1,29.96,SE,135,7.0,7.0,83,0.00,,,0.00,meteohub,2013-07-05 07:01:00,
2013-07-05 02:06:00,68.5,63.1,29.96,SE,135,6.0,8.0,83,0.00,,,0.00,meteohub,2013-07-05 07:06:00,
2013-07-05 02:11:00,68.4,63.0,29.96,SE,135,4.0,8.0,83,0.00,,,0.00,meteohub,2013-07-05 07:11:00,
2013-07-05 02:16:00,68.0,62.6,29.96,SW,225,5.0,7.0,83,0.00,,,0.00,meteohub,2013-07-05 07:16:00,
2013-07-05 02:21:00,68.0,63.0,29.96,South,180,4.0,7.0,84,0.00,,,0.00,meteohub,2013-07-05 07:21:00,
2013-07-05 02:26:00,68.2,63.1,29.96,SE,135,4.0,7.0,84,0.00,,,0.00,meteohub,2013-07-05 07:26:00,
2013-07-05 02:31:00,68.0,63.0,29.96,SE,135,4.0,7.0,84,0.00,,,0.00,meteohub,2013-07-05 07:31:00,
2013-07-05 02:36:00,68.0,63.0,29.96,SE,135,4.0,7.0,84,0.00,,,0.00,meteohub,2013-07-05 07:36:00,
2013-07-05 02:41:00,68.0,63.0,29.96,SE,135,4.0,6.0,84,0.00,,,0.00,meteohub,2013-07-05 07:41:00,
2013-07-05 02:46:00,68.0,63.0,29.96,NW,315,3.0,7.0,84,0.00,,,0.00,meteohub,2013-07-05 07:46:00,
2013-07-05 02:51:00,67.8,63.1,29.96,East,90,2.0,7.0,85,0.00,,,0.00,meteohub,2013-07-05 07:51:00,
2013-07-05 02:56:00,67.8,63.1,29.96,South,180,4.0,7.0,85,0.00,,,0.00,meteohub,2013-07-05 07:56:00,
2013-07-05 03:01:00,67.8,63.1,29.96,SE,135,5.0,5.0,85,0.00,,,0.00,meteohub,2013-07-05 08:01:00,
2013-07-05 03:06:00,67.8,63.5,29.96,SE,135,5.0,6.0,86,0.00,,,0.00,meteohub,2013-07-05 08:06:00,
2013-07-05 03:11:00,68.0,63.0,29.96,SE,135,6.0,8.0,84,0.00,,,0.00,meteohub,2013-07-05 08:11:00,
2013-07-05 03:16:00,67.8,63.5,29.96,SE,135,5.0,8.0,86,0.00,,,0.00,meteohub,2013-07-05 08:16:00,
2013-07-05 03:21:00,67.8,63.5,29.96,SE,135,5.0,8.0,86,0.00,,,0.00,meteohub,2013-07-05 08:21:00,
2013-07-05 03:27:00,67.5,63.1,29.96,South,180,4.0,8.0,86,0.00,,,0.00,meteohub,2013-07-05 08:27:00,
2013-07-05 03:32:00,67.3,63.0,29.96,SE,135,5.0,6.0,86,0.00,,,0.00,meteohub,2013-07-05 08:32:00,
2013-07-05 03:37:00,67.3,63.3,29.96,East,90,5.0,6.0,87,0.00,,,0.00,meteohub,2013-07-05 08:37:00,
2013-07-05 03:42:00,67.1,63.1,29.96,East,90,8.0,8.0,87,0.00,,,0.00,meteohub,2013-07-05 08:42:00,
2013-07-05 03:47:00,66.9,63.0,29.96,SE,135,4.0,8.0,87,0.00,,,0.00,meteohub,2013-07-05 08:47:00,
2013-07-05 03:52:00,66.9,63.0,29.96,SE,135,5.0,8.0,87,0.00,,,0.00,meteohub,2013-07-05 08:52:00,
2013-07-05 03:57:00,66.7,63.1,29.96,East,90,5.0,8.0,88,0.00,,,0.00,meteohub,2013-07-05 08:57:00,
2013-07-05 04:02:00,66.6,63.0,29.96,East,90,5.0,7.0,88,0.00,,,0.00,meteohub,2013-07-05 09:02:00,
2013-07-05 04:08:00,66.4,63.0,29.96,SE,135,5.0,6.0,89,0.00,,,0.00,meteohub,2013-07-05 09:08:00,
2013-07-05 04:13:00,66.2,62.8,29.96,SE,135,8.0,8.0,89,0.00,,,0.00,meteohub,2013-07-05 09:13:00,
2013-07-05 04:18:00,66.0,63.0,29.96,SE,135,8.0,8.0,90,0.00,,,0.00,meteohub,2013-07-05 09:18:00,
2013-07-05 04:23:00,66.0,63.3,29.96,SE,135,6.0,8.0,91,0.00,,,0.00,meteohub,2013-07-05 09:23:00,
2013-07-05 04:28:00,65.8,63.1,29.96,SE,135,7.0,8.0,91,0.00,,,0.00,meteohub,2013-07-05 09:28:00,
2013-07-05 04:34:00,65.7,63.3,29.97,SE,135,4.0,8.0,92,0.00,,,0.00,meteohub,2013-07-05 09:34:00,
2013-07-05 04:40:00,65.3,63.0,29.96,SE,135,4.0,7.0,92,0.00,,,0.00,meteohub,2013-07-05 09:40:00,
2013-07-05 04:45:00,65.1,62.8,29.97,SE,135,5.0,5.0,92,0.00,,,0.00,meteohub,2013-07-05 09:45:00,
2013-07-05 04:50:00,65.1,63.0,29.97,SE,135,5.0,6.0,93,0.00,,,0.00,meteohub,2013-07-05 09:50:00,
2013-07-05 04:56:00,65.1,63.3,29.97,SE,135,5.0,6.0,94,0.00,,,0.00,meteohub,2013-07-05 09:56:00,
2013-07-05 05:01:00,65.1,63.3,29.97,SE,135,6.0,6.0,94,0.00,,,0.00,meteohub,2013-07-05 10:01:00,
2013-07-05 05:06:00,65.1,63.3,29.97,SE,135,6.0,6.0,94,0.00,,,0.00,meteohub,2013-07-05 10:06:00,
2013-07-05 05:11:00,64.8,63.0,29.98,South,180,4.0,6.0,94,0.00,,,0.00,meteohub,2013-07-05 10:11:00,
2013-07-05 05:17:00,64.8,63.0,29.97,SE,135,5.0,6.0,94,0.00,,,0.00,meteohub,2013-07-05 10:17:00,
2013-07-05 05:22:00,64.6,63.1,29.97,SE,135,4.0,6.0,95,0.00,,,0.00,meteohub,2013-07-05 10:22:00,
2013-07-05 05:28:00,64.6,63.1,29.97,East,90,4.0,6.0,95,0.00,,,0.00,meteohub,2013-07-05 10:28:00,
2013-07-05 05:33:00,64.8,63.3,29.98,SE,135,4.0,5.0,95,0.00,,,0.00,meteohub,2013-07-05 10:33:00,
2013-07-05 05:38:00,64.6,63.1,29.98,South,180,5.0,5.0,95,0.00,,,0.00,meteohub,2013-07-05 10:38:00,
2013-07-05 05:43:00,64.6,63.1,29.98,South,180,4.0,5.0,95,0.00,,,0.00,meteohub,2013-07-05 10:43:00,
2013-07-05 05:49:00,64.6,63.1,29.98,SE,135,5.0,6.0,95,0.00,,,0.00,meteohub,2013-07-05 10:49:00,
2013-07-05 05:55:00,64.6,63.1,29.98,SE,135,5.0,7.0,95,0.00,,,0.00,meteohub,2013-07-05 10:55:00,
2013-07-05 06:00:00,64.6,63.1,29.98,East,90,5.0,7.0,95,0.00,,,0.00,meteohub,2013-07-05 11:00:00,
2013-07-05 06:06:00,64.6,63.1,29.98,SE,135,5.0,5.0,95,0.00,,,0.00,meteohub,2013-07-05 11:06:00,
2013-07-05 06:11:00,64.6,63.1,29.98,South,180,4.0,6.0,95,0.00,,,0.00,meteohub,2013-07-05 11:11:00,
2013-07-05 06:16:00,64.8,63.3,29.98,SE,135,4.0,7.0,95,0.00,,,0.00,meteohub,2013-07-05 11:16:00,
2013-07-05 06:22:00,64.9,63.5,29.98,South,180,6.0,7.0,95,0.00,,,0.00,meteohub,2013-07-05 11:22:00,
2013-07-05 06:28:00,65.3,63.9,29.98,SE,135,6.0,7.0,95,0.00,,,0.00,meteohub,2013-07-05 11:28:00,
2013-07-05 06:33:00,65.5,63.7,29.98,East,90,5.0,7.0,94,0.00,,,0.00,meteohub,2013-07-05 11:33:00,
2013-07-05 06:38:00,65.7,63.9,29.98,SE,135,8.0,8.0,94,0.00,,,0.00,meteohub,2013-07-05 11:38:00,
2013-07-05 06:43:00,65.8,63.7,29.98,SE,135,6.0,8.0,93,0.00,,,0.00,meteohub,2013-07-05 11:43:00,
2013-07-05 06:48:00,66.2,63.5,29.98,SE,135,7.0,8.0,91,0.00,,,0.00,meteohub,2013-07-05 11:48:00,
2013-07-05 06:54:00,66.6,63.5,29.98,South,180,7.0,8.0,90,0.00,,,0.00,meteohub,2013-07-05 11:54:00,
2013-07-05 06:59:00,66.9,63.5,29.98,SE,135,8.0,8.0,89,0.00,,,0.00,meteohub,2013-07-05 11:59:00,
2013-07-05 07:05:00,67.3,63.9,29.98,SE,135,5.0,9.0,89,0.00,,,0.00,meteohub,2013-07-05 12:05:00,
2013-07-05 07:10:00,67.5,63.9,29.98,SE,135,8.0,9.0,88,0.00,,,0.00,meteohub,2013-07-05 12:10:00,
2013-07-05 07:16:00,67.6,64.0,29.99,SE,135,10.0,10.0,88,0.00,,,0.00,meteohub,2013-07-05 12:16:00,
2013-07-05 07:21:00,67.8,63.9,29.98,SE,135,8.0,10.0,87,0.00,,,0.00,meteohub,2013-07-05 12:21:00,
2013-07-05 07:26:00,68.2,63.9,29.98,South,180,9.0,10.0,86,0.00,,,0.00,meteohub,2013-07-05 12:26:00,
2013-07-05 07:31:00,68.4,63.7,29.99,SE,135,8.0,10.0,85,0.00,,,0.00,meteohub,2013-07-05 12:31:00,
2013-07-05 07:36:00,68.5,63.9,29.99,SE,135,10.0,10.0,85,0.00,,,0.00,meteohub,2013-07-05 12:36:00,
2013-07-05 07:42:00,68.7,64.0,29.99,SE,135,8.0,10.0,85,0.00,,,0.00,meteohub,2013-07-05 12:42:00,
2013-07-05 07:47:00,68.9,64.2,29.99,SE,135,9.0,10.0,85,0.00,,,0.00,meteohub,2013-07-05 12:47:00,
2013-07-05 07:52:00,69.1,64.4,29.99,East,90,6.0,11.0,85,0.00,,,0.00,meteohub,2013-07-05 12:52:00,
2013-07-05 07:57:00,69.4,64.4,29.99,SE,135,4.0,11.0,84,0.00,,,0.00,meteohub,2013-07-05 12:57:00,
2013-07-05 08:02:00,69.8,64.4,29.99,SE,135,6.0,11.0,83,0.00,,,0.00,meteohub,2013-07-05 13:02:00,
2013-07-05 08:07:00,70.0,64.2,29.99,East,90,6.0,10.0,82,0.00,,,0.00,meteohub,2013-07-05 13:07:00,
2013-07-05 08:13:00,70.3,64.6,29.99,South,180,4.0,10.0,82,0.00,,,0.00,meteohub,2013-07-05 13:13:00,
2013-07-05 08:18:00,70.7,64.9,29.99,SE,135,8.0,10.0,82,0.00,,,0.00,meteohub,2013-07-05 13:18:00,
2013-07-05 08:24:00,71.1,64.9,29.99,SW,225,4.0,9.0,81,0.00,,,0.00,meteohub,2013-07-05 13:24:00,
2013-07-05 08:29:00,71.6,64.8,29.99,SE,135,8.0,9.0,79,0.00,,,0.00,meteohub,2013-07-05 13:29:00,
2013-07-05 08:34:00,72.0,64.8,29.99,SW,225,9.0,9.0,78,0.00,,,0.00,meteohub,2013-07-05 13:34:00,
2013-07-05 08:39:00,72.0,64.8,29.99,South,180,7.0,9.0,78,0.00,,,0.00,meteohub,2013-07-05 13:39:00,
2013-07-05 08:44:00,72.5,65.7,29.99,South,180,7.0,10.0,79,0.00,,,0.00,meteohub,2013-07-05 13:44:00,
2013-07-05 08:50:00,72.7,65.8,29.99,East,90,6.0,10.0,79,0.00,,,0.00,meteohub,2013-07-05 13:50:00,
2013-07-05 08:56:00,72.7,65.5,29.99,South,180,7.0,8.0,78,0.00,,,0.00,meteohub,2013-07-05 13:56:00,
2013-07-05 09:01:00,73.2,65.7,29.99,South,180,6.0,8.0,77,0.00,,,0.00,meteohub,2013-07-05 14:01:00,
2013-07-05 09:06:00,73.9,66.6,29.99,NW,315,4.0,8.0,78,0.00,,,0.00,meteohub,2013-07-05 14:06:00,
2013-07-05 09:11:00,74.7,66.6,29.99,East,90,7.0,8.0,76,0.00,,,0.00,meteohub,2013-07-05 14:11:00,
2013-07-05 09:17:00,74.8,66.7,29.99,SE,135,7.0,7.0,76,0.00,,,0.00,meteohub,2013-07-05 14:17:00,
2013-07-05 09:22:00,75.2,66.4,29.99,East,90,8.0,8.0,74,0.00,,,0.00,meteohub,2013-07-05 14:22:00,
2013-07-05 09:27:00,75.4,66.2,29.99,SE,135,5.0,10.0,73,0.00,,,0.00,meteohub,2013-07-05 14:27:00,
2013-07-05 09:33:00,75.6,66.4,29.99,SW,225,5.0,10.0,73,0.00,,,0.00,meteohub,2013-07-05 14:33:00,
2013-07-05 09:39:00,76.5,67.6,29.98,South,180,5.0,10.0,74,0.00,,,0.00,meteohub,2013-07-05 14:39:00,
2013-07-05 09:44:00,76.6,67.3,29.98,SE,135,7.0,10.0,73,0.00,,,0.00,meteohub,2013-07-05 14:44:00,
2013-07-05 09:49:00,77.0,66.9,29.98,SW,225,7.0,8.0,71,0.00,,,0.00,meteohub,2013-07-05 14:49:00,
2013-07-05 09:54:00,77.2,66.2,29.98,SW,225,8.0,8.0,69,0.00,,,0.00,meteohub,2013-07-05 14:54:00,
2013-07-05 09:59:00,77.5,66.9,29.97,SW,225,4.0,8.0,70,0.00,,,0.00,meteohub,2013-07-05 14:59:00,
2013-07-05 10:04:00,77.9,66.6,29.97,SW,225,8.0,8.0,68,0.00,,,0.00,meteohub,2013-07-05 15:04:00,
2013-07-05 10:10:00,77.9,66.0,29.97,South,180,10.0,10.0,67,0.00,,,0.00,meteohub,2013-07-05 15:10:00,
2013-07-05 10:15:00,77.7,65.5,29.97,SW,225,6.0,10.0,66,0.00,,,0.00,meteohub,2013-07-05 15:15:00,
2013-07-05 10:20:00,78.1,66.2,29.98,SW,225,9.0,10.0,67,0.00,,,0.00,meteohub,2013-07-05 15:20:00,
2013-07-05 10:26:00,78.4,66.6,29.98,South,180,4.0,10.0,67,0.00,,,0.00,meteohub,2013-07-05 15:26:00,
2013-07-05 10:31:00,78.8,66.0,29.97,SW,225,7.0,9.0,65,0.00,,,0.00,meteohub,2013-07-05 15:31:00,
2013-07-05 10:36:00,78.8,66.6,29.98,SW,225,10.0,10.0,66,0.00,,,0.00,meteohub,2013-07-05 15:36:00,
2013-07-05 10:41:00,79.0,66.6,29.98,South,180,4.0,10.0,66,0.00,,,0.00,meteohub,2013-07-05 15:41:00,
2013-07-05 10:46:00,79.0,66.2,29.98,SW,225,6.0,10.0,65,0.00,,,0.00,meteohub,2013-07-05 15:46:00,
2013-07-05 10:51:00,79.2,66.7,29.97,South,180,5.0,11.0,66,0.00,,,0.00,meteohub,2013-07-05 15:51:00,
2013-07-05 10:56:00,79.5,66.7,29.97,South,180,15.0,15.0,65,0.00,,,0.00,meteohub,2013-07-05 15:56:00,
2013-07-05 11:00:00,79.3,65.7,29.97,SE,135,9.0,15.0,63,0.00,,,0.00,meteohub,2013-07-05 16:00:00,
2013-07-05 11:05:00,79.3,66.0,29.97,SW,225,10.0,15.0,64,0.00,,,0.00,meteohub,2013-07-05 16:05:00,
2013-07-05 11:10:00,79.3,66.0,29.97,East,90,6.0,15.0,64,0.00,,,0.00,meteohub,2013-07-05 16:10:00,
2013-07-05 11:15:00,80.1,67.3,29.96,South,180,3.0,11.0,65,0.00,,,0.00,meteohub,2013-07-05 16:15:00,
2013-07-05 11:20:00,80.1,66.7,29.96,SW,225,9.0,14.0,64,0.00,,,0.00,meteohub,2013-07-05 16:20:00,
2013-07-05 11:25:00,80.2,66.9,29.96,South,180,4.0,14.0,64,0.00,,,0.00,meteohub,2013-07-05 16:25:00,
2013-07-05 11:30:00,80.4,66.7,29.96,South,180,8.0,14.0,63,0.00,,,0.00,meteohub,2013-07-05 16:30:00,
2013-07-05 11:35:00,80.2,66.6,29.96,SW,225,8.0,11.0,63,0.00,,,0.00,meteohub,2013-07-05 16:35:00,
2013-07-05 11:40:00,80.1,66.4,29.96,South,180,5.0,11.0,63,0.00,,,0.00,meteohub,2013-07-05 16:40:00,
2013-07-05 11:45:00,80.4,66.2,29.96,South,180,6.0,11.0,62,0.00,,,0.00,meteohub,2013-07-05 16:45:00,
2013-07-05 11:50:00,81.0,67.1,29.96,SE,135,7.0,11.0,63,0.00,,,0.00,meteohub,2013-07-05 16:50:00,
2013-07-05 11:56:00,80.6,66.4,29.96,SW,225,8.0,12.0,62,0.00,,,0.00,meteohub,2013-07-05 16:56:00,
2013-07-05 12:01:00,81.0,67.1,29.96,SE,135,11.0,12.0,63,0.00,,,0.00,meteohub,2013-07-05 17:01:00,
2013-07-05 12:06:00,81.3,66.6,29.95,South,180,6.0,12.0,61,0.00,,,0.00,meteohub,2013-07-05 17:06:00,
2013-07-05 12:11:00,81.5,66.7,29.95,South,180,8.0,12.0,61,0.00,,,0.00,meteohub,2013-07-05 17:11:00,
2013-07-05 12:16:00,81.3,67.1,29.95,SE,135,8.0,12.0,62,0.00,,,0.00,meteohub,2013-07-05 17:16:00,
2013-07-05 12:21:00,81.1,66.9,29.95,South,180,8.0,11.0,62,0.00,,,0.00,meteohub,2013-07-05 17:21:00,
2013-07-05 12:26:00,81.1,66.9,29.95,South,180,9.0,11.0,62,0.00,,,0.00,meteohub,2013-07-05 17:26:00,
2013-07-05 12:31:00,81.3,67.1,29.95,SE,135,8.0,11.0,62,0.00,,,0.00,meteohub,2013-07-05 17:31:00,
2013-07-05 12:36:00,81.7,67.5,29.95,South,180,8.0,11.0,62,0.00,,,0.00,meteohub,2013-07-05 17:36:00,
2013-07-05 12:41:00,81.7,66.4,29.95,South,180,8.0,14.0,60,0.00,,,0.00,meteohub,2013-07-05 17:41:00,
2013-07-05 12:46:00,81.7,66.0,29.95,South,180,6.0,14.0,59,0.00,,,0.00,meteohub,2013-07-05 17:46:00,
2013-07-05 12:51:00,81.1,66.9,29.95,SE,135,8.0,14.0,62,0.00,,,0.00,meteohub,2013-07-05 17:51:00,
2013-07-05 12:56:00,81.3,67.1,29.95,South,180,11.0,14.0,62,0.00,,,0.00,meteohub,2013-07-05 17:56:00,
2013-07-05 13:01:00,81.5,66.2,29.95,South,180,11.0,12.0,60,0.00,,,0.00,meteohub,2013-07-05 18:01:00,
2013-07-05 13:06:00,81.3,66.6,29.95,SW,225,11.0,15.0,61,0.00,,,0.00,meteohub,2013-07-05 18:06:00,
2013-07-05 13:11:00,81.5,66.7,29.94,SE,135,11.0,15.0,61,0.00,,,0.00,meteohub,2013-07-05 18:11:00,
2013-07-05 13:16:00,81.1,66.4,29.95,SE,135,14.0,14.0,61,0.00,,,0.00,meteohub,2013-07-05 18:16:00,
2013-07-05 13:22:00,81.0,67.1,29.95,SW,225,8.0,14.0,63,0.00,,,0.00,meteohub,2013-07-05 18:22:00,
2013-07-05 13:27:00,81.7,66.9,29.94,South,180,12.0,14.0,61,0.00,,,0.00,meteohub,2013-07-05 18:27:00,
2013-07-05 13:32:00,82.0,66.7,29.94,SE,135,6.0,14.0,60,0.00,,,0.00,meteohub,2013-07-05 18:32:00,
2013-07-05 13:37:00,82.6,67.3,29.94,SE,135,14.0,14.0,60,0.00,,,0.00,meteohub,2013-07-05 18:37:00,
2013-07-05 13:42:00,82.4,65.7,29.94,SE,135,9.0,14.0,57,0.00,,,0.00,meteohub,2013-07-05 18:42:00,
2013-07-05 13:47:00,82.0,65.3,29.94,South,180,8.0,14.0,57,0.00,,,0.00,meteohub,2013-07-05 18:47:00,
2013-07-05 13:52:00,81.5,65.8,29.94,South,180,8.0,14.0,59,0.00,,,0.00,meteohub,2013-07-05 18:52:00,
2013-07-05 13:57:00,82.2,67.5,29.94,East,90,9.0,11.0,61,0.00,,,0.00,meteohub,2013-07-05 18:57:00,
2013-07-05 14:02:00,82.4,66.6,29.94,SE,135,17.0,17.0,59,0.00,,,0.00,meteohub,2013-07-05 19:02:00,
2013-07-05 14:07:00,82.0,66.7,29.94,SE,135,10.0,17.0,60,0.00,,,0.00,meteohub,2013-07-05 19:07:00,
2013-07-05 14:13:00,82.0,66.4,29.94,SE,135,11.0,17.0,59,0.00,,,0.00,meteohub,2013-07-05 19:13:00,
2013-07-05 14:18:00,81.7,66.0,29.94,SE,135,11.0,17.0,59,0.00,,,0.00,meteohub,2013-07-05 19:18:00,
2013-07-05 14:23:00,82.4,66.6,29.93,East,90,11.0,15.0,59,0.00,,,0.00,meteohub,2013-07-05 19:23:00,
2013-07-05 14:28:00,82.0,65.8,29.93,South,180,15.0,15.0,58,0.00,,,0.00,meteohub,2013-07-05 19:28:00,
2013-07-05 14:33:00,82.0,66.7,29.93,SE,135,13.0,15.0,60,0.00,,,0.00,meteohub,2013-07-05 19:33:00,
2013-07-05 14:38:00,82.4,65.7,29.93,SE,135,10.0,15.0,57,0.00,,,0.00,meteohub,2013-07-05 19:38:00,
2013-07-05 14:43:00,82.2,65.5,29.93,SW,225,7.0,15.0,57,0.00,,,0.00,meteohub,2013-07-05 19:43:00,
2013-07-05 14:48:00,82.6,65.8,29.93,SE,135,8.0,15.0,57,0.00,,,0.00,meteohub,2013-07-05 19:48:00,
2013-07-05 14:53:00,82.0,65.3,29.93,SE,135,9.0,11.0,57,0.00,,,0.00,meteohub,2013-07-05 19:53:00,
2013-07-05 14:58:00,82.0,65.8,29.93,SE,135,12.0,12.0,58,0.00,,,0.00,meteohub,2013-07-05 19:58:00,
2013-07-05 15:03:00,81.5,65.3,29.93,SE,135,8.0,13.0,58,0.00,,,0.00,meteohub,2013-07-05 20:03:00,
2013-07-05 15:04:00,81.7,65.5,29.93,SE,135,8.0,13.0,58,0.00,,,0.00,meteohub,2013-07-05 20:04:00,
2013-07-05 15:09:00,82.8,65.5,29.92,SE,135,12.0,13.0,56,0.00,,,0.00,meteohub,2013-07-05 20:09:00,
2013-07-05 15:14:00,82.0,65.8,29.93,East,90,8.0,13.0,58,0.00,,,0.00,meteohub,2013-07-05 20:14:00,
2013-07-05 15:15:00,82.0,65.8,29.93,South,180,9.0,12.0,58,0.00,,,0.00,meteohub,2013-07-05 20:15:00,
2013-07-05 15:20:00,82.4,65.7,29.92,SE,135,8.0,12.0,57,0.00,,,0.00,meteohub,2013-07-05 20:20:00,
2013-07-05 15:25:00,81.7,64.9,29.92,South,180,10.0,12.0,57,0.00,,,0.00,meteohub,2013-07-05 20:25:00,
2013-07-05 15:30:00,81.7,64.4,29.92,SE,135,8.0,14.0,56,0.00,,,0.00,meteohub,2013-07-05 20:30:00,
2013-07-05 15:36:00,81.7,66.0,29.92,NW,315,8.0,14.0,59,0.00,,,0.00,meteohub,2013-07-05 20:36:00,
2013-07-05 15:41:00,83.1,65.8,29.92,South,180,11.0,11.0,56,0.00,,,0.00,meteohub,2013-07-05 20:41:00,
2013-07-05 15:46:00,83.3,65.5,29.91,SE,135,13.0,13.0,55,0.00,,,0.00,meteohub,2013-07-05 20:46:00,
2013-07-05 15:51:00,83.3,65.5,29.91,East,90,8.0,13.0,55,0.00,,,0.00,meteohub,2013-07-05 20:51:00,
2013-07-05 15:56:00,83.1,64.8,29.92,SE,135,7.0,13.0,54,0.00,,,0.00,meteohub,2013-07-05 20:56:00,
2013-07-05 16:01:00,82.9,65.1,29.92,SE,135,6.0,13.0,55,0.00,,,0.00,meteohub,2013-07-05 21:01:00,
2013-07-05 16:06:00,82.0,64.8,29.91,SE,135,9.0,11.0,56,0.00,,,0.00,meteohub,2013-07-05 21:06:00,
2013-07-05 16:11:00,81.3,65.7,29.92,South,180,6.0,11.0,59,0.00,,,0.00,meteohub,2013-07-05 21:11:00,
2013-07-05 16:16:00,81.7,66.4,29.92,SE,135,8.0,11.0,60,0.00,,,0.00,meteohub,2013-07-05 21:16:00,
2013-07-05 16:21:00,82.4,66.2,29.91,SE,135,4.0,11.0,58,0.00,,,0.00,meteohub,2013-07-05 21:21:00,
2013-07-05 16:26:00,82.4,65.7,29.92,South,180,8.0,11.0,57,0.00,,,0.00,meteohub,2013-07-05 21:26:00,
2013-07-05 16:31:00,82.8,66.0,29.91,South,180,8.0,11.0,57,0.00,,,0.00,meteohub,2013-07-05 21:31:00,
2013-07-05 16:36:00,83.1,66.4,29.91,SE,135,6.0,12.0,57,0.00,,,0.00,meteohub,2013-07-05 21:36:00,
2013-07-05 16:41:00,82.6,66.4,29.91,SE,135,8.0,12.0,58,0.00,,,0.00,meteohub,2013-07-05 21:41:00,
2013-07-05 16:46:00,82.0,65.8,29.91,SE,135,5.0,9.0,58,0.00,,,0.00,meteohub,2013-07-05 21:46:00,
2013-07-05 16:51:00,82.4,66.2,29.91,South,180,6.0,9.0,58,0.00,,,0.00,meteohub,2013-07-05 21:51:00,
2013-07-05 16:57:00,82.6,66.4,29.91,East,90,5.0,9.0,58,0.00,,,0.00,meteohub,2013-07-05 21:57:00,
2013-07-05 17:02:00,82.9,67.6,29.91,SE,135,10.0,10.0,60,0.00,,,0.00,meteohub,2013-07-05 22:02:00,
2013-07-05 17:07:00,82.9,65.7,29.91,SE,135,10.0,10.0,56,0.00,,,0.00,meteohub,2013-07-05 22:07:00,
2013-07-05 17:12:00,82.9,66.2,29.91,East,90,8.0,11.0,57,0.00,,,0.00,meteohub,2013-07-05 22:12:00,
2013-07-05 17:17:00,82.9,66.2,29.91,SE,135,9.0,11.0,57,0.00,,,0.00,meteohub,2013-07-05 22:17:00,
2013-07-05 17:22:00,83.3,67.5,29.91,South,180,6.0,11.0,59,0.00,,,0.00,meteohub,2013-07-05 22:22:00,
2013-07-05 17:27:00,83.7,66.7,29.90,SE,135,11.0,11.0,57,0.00,,,0.00,meteohub,2013-07-05 22:27:00,
2013-07-05 17:32:00,83.3,66.0,29.91,SE,135,13.0,13.0,56,0.00,,,0.00,meteohub,2013-07-05 22:32:00,
2013-07-05 17:37:00,82.6,65.3,29.91,SE,135,8.0,13.0,56,0.00,,,0.00,meteohub,2013-07-05 22:37:00,
2013-07-05 17:42:00,82.4,65.7,29.91,SE,135,7.0,13.0,57,0.00,,,0.00,meteohub,2013-07-05 22:42:00,
2013-07-05 17:47:00,82.6,65.8,29.91,SE,135,8.0,13.0,57,0.00,,,0.00,meteohub,2013-07-05 22:47:00,
2013-07-05 17:52:00,82.6,65.8,29.90,SE,135,10.0,11.0,57,0.00,,,0.00,meteohub,2013-07-05 22:52:00,
2013-07-05 17:57:00,82.6,65.8,29.90,SE,135,11.0,11.0,57,0.00,,,0.00,meteohub,2013-07-05 22:57:00,
2013-07-05 18:02:00,82.2,66.0,29.90,SE,135,8.0,12.0,58,0.00,,,0.00,meteohub,2013-07-05 23:02:00,
2013-07-05 18:07:00,81.5,64.8,29.90,SE,135,9.0,12.0,57,0.00,,,0.00,meteohub,2013-07-05 23:07:00,
2013-07-05 18:12:00,81.5,65.3,29.91,SE,135,7.0,12.0,58,0.00,,,0.00,meteohub,2013-07-05 23:12:00,
2013-07-05 18:17:00,81.5,65.3,29.91,SE,135,8.0,12.0,58,0.00,,,0.00,meteohub,2013-07-05 23:17:00,
2013-07-05 18:22:00,81.7,66.0,29.90,SE,135,11.0,12.0,59,0.00,,,0.00,meteohub,2013-07-05 23:22:00,
2013-07-05 18:27:00,81.7,66.0,29.91,South,180,10.0,11.0,59,0.00,,,0.00,meteohub,2013-07-05 23:27:00,
2013-07-05 18:32:00,81.5,65.8,29.91,SE,135,10.0,11.0,59,0.00,,,0.00,meteohub,2013-07-05 23:32:00,
2013-07-05 18:37:00,81.3,66.0,29.91,South,180,9.0,11.0,60,0.00,,,0.00,meteohub,2013-07-05 23:37:00,
2013-07-05 18:42:00,81.3,66.6,29.91,SE,135,5.0,11.0,61,0.00,,,0.00,meteohub,2013-07-05 23:42:00,
2013-07-05 18:47:00,81.3,66.6,29.91,SE,135,7.0,11.0,61,0.00,,,0.00,meteohub,2013-07-05 23:47:00,
2013-07-05 18:52:00,81.1,66.4,29.91,East,90,10.0,10.0,61,0.00,,,0.00,meteohub,2013-07-05 23:52:00,
2013-07-05 18:57:00,80.8,66.0,29.90,SE,135,8.0,10.0,61,0.00,,,0.00,meteohub,2013-07-05 23:57:00,
2013-07-05 19:02:00,80.6,65.8,29.91,South,180,7.0,11.0,61,0.00,,,0.00,meteohub,2013-07-06 00:02:00,
2013-07-05 19:07:00,80.6,65.8,29.90,SE,135,5.0,11.0,61,0.00,,,0.00,meteohub,2013-07-06 00:07:00,
2013-07-05 19:12:00,80.6,65.8,29.91,SE,135,6.0,11.0,61,0.00,,,0.00,meteohub,2013-07-06 00:12:00,
2013-07-05 19:17:00,80.4,66.2,29.91,SE,135,7.0,11.0,62,0.00,,,0.00,meteohub,2013-07-06 00:17:00,
2013-07-05 19:22:00,80.2,66.0,29.91,South,180,5.0,8.0,62,0.00,,,0.00,meteohub,2013-07-06 00:22:00,
2013-07-05 19:27:00,80.1,65.8,29.91,South,180,8.0,8.0,62,0.00,,,0.00,meteohub,2013-07-06 00:27:00,
2013-07-05 19:32:00,79.9,65.7,29.91,East,90,9.0,9.0,62,0.00,,,0.00,meteohub,2013-07-06 00:32:00,
2013-07-05 19:37:00,79.7,65.5,29.91,South,180,5.0,9.0,62,0.00,,,0.00,meteohub,2013-07-06 00:37:00,
2013-07-05 19:42:00,79.5,65.3,29.91,SW,225,5.0,9.0,62,0.00,,,0.00,meteohub,2013-07-06 00:42:00,
2013-07-05 19:47:00,79.2,64.9,29.91,East,90,5.0,9.0,62,0.00,,,0.00,meteohub,2013-07-06 00:47:00,
2013-07-05 19:52:00,79.0,65.3,29.91,East,90,7.0,8.0,63,0.00,,,0.00,meteohub,2013-07-06 00:52:00,
2013-07-05 19:57:00,78.6,65.5,29.91,SE,135,8.0,8.0,64,0.00,,,0.00,meteohub,2013-07-06 00:57:00,
2013-07-05 20:02:00,78.3,65.1,29.91,SE,135,7.0,8.0,64,0.00,,,0.00,meteohub,2013-07-06 01:02:00,
2013-07-05 20:07:00,77.9,64.8,29.91,South,180,5.0,8.0,64,0.00,,,0.00,meteohub,2013-07-06 01:07:00,
2013-07-05 20:13:00,77.5,64.8,29.91,East,90,6.0,8.0,65,0.00,,,0.00,meteohub,2013-07-06 01:13:00,
2013-07-05 20:18:00,77.2,64.9,29.92,SE,135,5.0,7.0,66,0.00,,,0.00,meteohub,2013-07-06 01:18:00,
2013-07-05 20:23:00,77.0,65.1,29.92,SE,135,5.0,7.0,67,0.00,,,0.00,meteohub,2013-07-06 01:23:00,
2013-07-05 20:28:00,76.6,65.3,29.91,East,90,5.0,7.0,68,0.00,,,0.00,meteohub,2013-07-06 01:28:00,
2013-07-05 20:33:00,76.5,65.5,29.92,SE,135,4.0,7.0,69,0.00,,,0.00,meteohub,2013-07-06 01:33:00,
2013-07-05 20:38:00,76.1,65.1,29.92,SE,135,4.0,6.0,69,0.00,,,0.00,meteohub,2013-07-06 01:38:00,
2013-07-05 20:43:00,75.9,64.9,29.92,SE,135,5.0,6.0,69,0.00,,,0.00,meteohub,2013-07-06 01:43:00,
2013-07-05 20:48:00,75.7,65.3,29.92,SE,135,5.0,6.0,70,0.00,,,0.00,meteohub,2013-07-06 01:48:00,
2013-07-05 20:53:00,75.6,65.1,29.92,SE,135,4.0,8.0,70,0.00,,,0.00,meteohub,2013-07-06 01:53:00,
2013-07-05 20:58:00,75.4,65.3,29.92,South,180,6.0,8.0,71,0.00,,,0.00,meteohub,2013-07-06 01:58:00,
2013-07-05 21:03:00,75.2,65.1,29.92,SE,135,4.0,8.0,71,0.00,,,0.00,meteohub,2013-07-06 02:03:00,
2013-07-05 21:08:00,75.0,65.8,29.92,East,90,4.0,7.0,73,0.00,,,0.00,meteohub,2013-07-06 02:08:00,
2013-07-05 21:13:00,74.7,65.5,29.92,South,180,7.0,7.0,73,0.00,,,0.00,meteohub,2013-07-06 02:13:00,
2013-07-05 21:18:00,74.5,65.7,29.93,East,90,6.0,8.0,74,0.00,,,0.00,meteohub,2013-07-06 02:18:00,
2013-07-05 21:23:00,74.3,65.8,29.93,East,90,7.0,8.0,75,0.00,,,0.00,meteohub,2013-07-06 02:23:00,
2013-07-05 21:28:00,74.1,65.7,29.94,SE,135,6.0,8.0,75,0.00,,,0.00,meteohub,2013-07-06 02:28:00,
2013-07-05 21:33:00,73.8,65.3,29.93,SE,135,5.0,7.0,75,0.00,,,0.00,meteohub,2013-07-06 02:33:00,
2013-07-05 21:38:00,73.8,65.3,29.94,East,90,5.0,7.0,75,0.00,,,0.00,meteohub,2013-07-06 02:38:00,
2013-07-05 21:44:00,73.8,65.3,29.94,SE,135,5.0,6.0,75,0.00,,,0.00,meteohub,2013-07-06 02:44:00,
2013-07-05 21:49:00,73.8,65.3,29.94,SE,135,6.0,6.0,75,0.00,,,0.00,meteohub,2013-07-06 02:49:00,
2013-07-05 21:54:00,73.8,65.3,29.94,SE,135,4.0,6.0,75,0.00,,,0.00,meteohub,2013-07-06 02:54:00,
2013-07-05 21:59:00,73.6,65.1,29.94,SE,135,4.0,7.0,75,0.00,,,0.00,meteohub,2013-07-06 02:59:00,
2013-07-05 22:04:00,73.4,64.9,29.94,SE,135,5.0,7.0,75,0.00,,,0.00,meteohub,2013-07-06 03:04:00,
2013-07-05 22:09:00,73.4,65.3,29.94,SE,135,7.0,7.0,76,0.00,,,0.00,meteohub,2013-07-06 03:09:00,
2013-07-05 22:14:00,73.2,64.8,29.94,SE,135,5.0,7.0,75,0.00,,,0.00,meteohub,2013-07-06 03:14:00,
2013-07-05 22:19:00,73.2,64.8,29.94,SE,135,4.0,7.0,75,0.00,,,0.00,meteohub,2013-07-06 03:19:00,
2013-07-05 22:24:00,73.0,64.6,29.94,SE,135,4.0,7.0,75,0.00,,,0.00,meteohub,2013-07-06 03:24:00,
2013-07-05 22:29:00,72.9,64.4,29.94,SE,135,4.0,7.0,75,0.00,,,0.00,meteohub,2013-07-06 03:29:00,
2013-07-05 22:34:00,72.9,64.4,29.95,SW,225,5.0,7.0,75,0.00,,,0.00,meteohub,2013-07-06 03:34:00,
2013-07-05 22:39:00,72.9,64.4,29.95,East,90,4.0,6.0,75,0.00,,,0.00,meteohub,2013-07-06 03:39:00,
2013-07-05 22:44:00,72.9,64.4,29.95,SE,135,4.0,6.0,75,0.00,,,0.00,meteohub,2013-07-06 03:44:00,
2013-07-05 22:49:00,72.9,64.4,29.94,SE,135,4.0,5.0,75,0.00,,,0.00,meteohub,2013-07-06 03:49:00,
2013-07-05 22:54:00,72.9,64.4,29.95,SE,135,5.0,5.0,75,0.00,,,0.00,meteohub,2013-07-06 03:54:00,
2013-07-05 22:59:00,72.9,64.4,29.95,SE,135,4.0,4.0,75,0.00,,,0.00,meteohub,2013-07-06 03:59:00,
2013-07-05 23:00:00,72.9,64.4,29.94,SE,135,4.0,5.0,75,0.00,,,0.00,meteohub,2013-07-06 04:00:00,
2013-07-05 23:01:00,72.9,64.4,29.95,SE,135,4.0,5.0,75,0.00,,,0.00,meteohub,2013-07-06 04:01:00,
2013-07-05 23:02:00,72.9,64.4,29.95,SE,135,4.0,5.0,75,0.00,,,0.00,meteohub,2013-07-06 04:02:00,
2013-07-05 23:04:00,72.9,64.4,29.94,SE,135,4.0,5.0,75,0.00,,,0.00,meteohub,2013-07-06 04:04:00,
2013-07-05 23:09:00,72.7,64.2,29.95,SE,135,4.0,5.0,75,0.00,,,0.00,meteohub,2013-07-06 04:09:00,
2013-07-05 23:10:00,72.5,64.0,29.94,SE,135,4.0,5.0,75,0.00,,,0.00,meteohub,2013-07-06 04:10:00,
2013-07-05 23:15:00,72.5,64.6,29.94,SE,135,5.0,6.0,76,0.00,,,0.00,meteohub,2013-07-06 04:15:00,
2013-07-05 23:16:00,72.5,64.6,29.94,SE,135,5.0,6.0,76,0.00,,,0.00,meteohub,2013-07-06 04:16:00,
2013-07-05 23:22:00,72.5,64.6,29.94,SE,135,5.0,6.0,76,0.00,,,0.00,meteohub,2013-07-06 04:22:00,
2013-07-05 23:27:00,72.3,64.4,29.94,SE,135,4.0,5.0,76,0.00,,,0.00,meteohub,2013-07-06 04:27:00,
2013-07-05 23:32:00,72.1,64.2,29.94,East,90,4.0,5.0,76,0.00,,,0.00,meteohub,2013-07-06 04:32:00,
2013-07-05 23:37:00,72.1,64.2,29.95,SE,135,5.0,5.0,76,0.00,,,0.00,meteohub,2013-07-06 04:37:00,
2013-07-05 23:42:00,72.0,64.4,29.95,SE,135,4.0,6.0,77,0.00,,,0.00,meteohub,2013-07-06 04:42:00,
2013-07-05 23:47:00,72.0,64.4,29.94,SE,135,6.0,7.0,77,0.00,,,0.00,meteohub,2013-07-06 04:47:00,
2013-07-05 23:52:00,72.0,64.4,29.94,SE,135,5.0,7.0,77,0.00,,,0.00,meteohub,2013-07-06 04:52:00,
2013-07-05 23:57:00,71.8,64.6,29.95,SE,135,4.0,8.0,78,0.00,,,0.00,meteohub,2013-07-06 04:57:00,